• In Uzbekistan
  • List of Countries
  • For 7 days
  • Water Temperature
  • Satellite Maps
  • Weather Map
  • Weather Widgets
  • user-avatar
    Login

    Hourly Weather Newcastle

    Today, 24 September, Sunday

    Time Temperature Precipitation Wind Pressure Humidity
    00:00 +28°C° 0 mm 6 mps 751 mmHg 22%
    01:00 +29°C° 0 mm 6 mps 750 mmHg 20%
    02:00 +29°C° 0 mm 6 mps 750 mmHg 19%
    03:00 +30°C° 0 mm 6 mps 750 mmHg 19%
    04:00 +30°C° 0 mm 6 mps 750 mmHg 18%
    05:00 +30°C° 0 mm 6 mps 750 mmHg 20%
    06:00 +30°C° 0 mm 6 mps 751 mmHg 22%
    07:00 +30°C° 0 mm 7 mps 752 mmHg 23%
    08:00 +32°C° 0 mm 6 mps 752 mmHg 22%
    09:00 +33°C° 0 mm 6 mps 752 mmHg 21%
    10:00 +35°C° 0 mm 5 mps 752 mmHg 20%
    11:00 +35°C° 0 mm 5 mps 752 mmHg 20%
    12:00 +35°C° 0 mm 5 mps 751 mmHg 20%
    13:00 +35°C° 0 mm 6 mps 751 mmHg 20%
    14:00 +35°C° 0 mm 5 mps 751 mmHg 22%
    15:00 +34°C° 0 mm 5 mps 751 mmHg 24%
    16:00 +33°C° 0 mm 5 mps 751 mmHg 26%
    17:00 +30°C° 0 mm 4 mps 751 mmHg 29%
    18:00 +28°C° 0 mm 3 mps 752 mmHg 33%
    19:00 +25°C° 0 mm 2 mps 752 mmHg 36%
    20:00 +24°C° 0 mm 2 mps 752 mmHg 38%
    21:00 +23°C° 0 mm 2 mps 753 mmHg 40%
    22:00 +21°C° 0 mm 2 mps 753 mmHg 41%
    23:00 +20°C° 0 mm 2 mps 753 mmHg 42%

    Tomorrow, 25 September, Monday

    Time Temperature Precipitation Wind Pressure Humidity
    00:00 +20°C° 0 mm 3 mps 753 mmHg 43%
    01:00 +19°C° 0 mm 3 mps 753 mmHg 44%
    02:00 +18°C° 0 mm 3 mps 754 mmHg 44%
    03:00 +18°C° 0 mm 3 mps 755 mmHg 44%
    04:00 +17°C° 0 mm 3 mps 755 mmHg 44%
    05:00 +18°C° 0 mm 4 mps 756 mmHg 43%
    06:00 +18°C° 0 mm 4 mps 756 mmHg 41%
    07:00 +17°C° 0 mm 5 mps 757 mmHg 40%
    08:00 +20°C° 0 mm 5 mps 757 mmHg 35%
    09:00 +23°C° 0 mm 5 mps 757 mmHg 30%
    10:00 +26°C° 0 mm 5 mps 756 mmHg 25%
    11:00 +27°C° 0 mm 5 mps 756 mmHg 23%
    12:00 +28°C° 0 mm 5 mps 756 mmHg 22%
    13:00 +29°C° 0 mm 5 mps 755 mmHg 21%
    14:00 +28°C° 0.1 mm 6 mps 756 mmHg 26%
    15:00 +26°C° 0.1 mm 6 mps 756 mmHg 30%
    16:00 +24°C° 0.1 mm 7 mps 756 mmHg 35%
    17:00 +23°C° 0 mm 6 mps 757 mmHg 36%
    18:00 +22°C° 0 mm 5 mps 758 mmHg 36%
    19:00 +21°C° 0 mm 5 mps 758 mmHg 37%
    20:00 +19°C° 0 mm 4 mps 759 mmHg 41%
    21:00 +18°C° 0 mm 4 mps 759 mmHg 44%
    22:00 +15°C° 0 mm 4 mps 759 mmHg 48%
    23:00 +16°C° 0 mm 3 mps 760 mmHg 51%

    Day after tomorrow, 26 September, Tuesday

    Time Temperature Precipitation Wind Pressure Humidity
    00:00 +14°C° 0 mm 3 mps 760 mmHg 53%
    01:00 +13°C° 0 mm 3 mps 760 mmHg 55%
    02:00 +13°C° 0 mm 3 mps 760 mmHg 56%
    03:00 +12°C° 0 mm 3 mps 760 mmHg 58%
    04:00 +12°C° 0 mm 3 mps 760 mmHg 59%
    05:00 +14°C° 0 mm 2 mps 761 mmHg 57%
    06:00 +14°C° 0 mm 2 mps 761 mmHg 55%
    07:00 +15°C° 0 mm 2 mps 761 mmHg 54%
    08:00 +18°C° 0 mm 2 mps 761 mmHg 47%
    09:00 +21°C° 0 mm 2 mps 761 mmHg 41%
    10:00 +24°C° 0 mm 2 mps 761 mmHg 35%
    11:00 +25°C° 0 mm 2 mps 761 mmHg 33%
    12:00 +26°C° 0 mm 2 mps 760 mmHg 32%
    13:00 +27°C° 0 mm 2 mps 759 mmHg 31%
    14:00 +26°C° 0 mm 3 mps 759 mmHg 35%
    15:00 +25°C° 0 mm 4 mps 759 mmHg 40%
    16:00 +23°C° 0 mm 4 mps 759 mmHg 44%
    17:00 +21°C° 0 mm 4 mps 760 mmHg 52%
    18:00 +19°C° 0 mm 4 mps 760 mmHg 60%
    19:00 +17°C° 0 mm 4 mps 761 mmHg 68%
    20:00 +17°C° 0 mm 4 mps 761 mmHg 71%
    21:00 +15°C° 0 mm 4 mps 761 mmHg 74%
    22:00 +15°C° 0 mm 4 mps 761 mmHg 78%
    23:00 +15°C° 0 mm 4 mps 761 mmHg 81%

    27 September, Wednesday

    Time Temperature Precipitation Wind Pressure Humidity
    00:00 +15°C° 0 mm 4 mps 760 mmHg 84%
    01:00 +15°C° 0 mm 4 mps 760 mmHg 87%
    02:00 +15°C° 0 mm 4 mps 760 mmHg 89%
    03:00 +14°C° 0 mm 4 mps 759 mmHg 91%
    04:00 +14°C° 0 mm 4 mps 759 mmHg 93%
    05:00 +15°C° 0 mm 4 mps 759 mmHg 90%
    06:00 +15°C° 0 mm 4 mps 759 mmHg 87%
    07:00 +17°C° 0 mm 4 mps 760 mmHg 85%
    08:00 +20°C° 0 mm 4 mps 759 mmHg 73%
    09:00 +23°C° 0 mm 5 mps 758 mmHg 61%
    10:00 +27°C° 0 mm 5 mps 757 mmHg 49%
    11:00 +30°C° 0 mm 5 mps 756 mmHg 43%
    12:00 +33°C° 0 mm 6 mps 755 mmHg 37%
    13:00 +36°C° 0 mm 6 mps 754 mmHg 31%
    14:00 +35°C° 0 mm 6 mps 753 mmHg 34%
    15:00 +34°C° 0 mm 7 mps 752 mmHg 37%
    16:00 +33°C° 0 mm 7 mps 752 mmHg 40%
    17:00 +29°C° 0 mm 6 mps 752 mmHg 52%
    18:00 +27°C° 0 mm 5 mps 753 mmHg 63%
    19:00 +23°C° 0 mm 4 mps 753 mmHg 75%
    20:00 +23°C° 0 mm 5 mps 754 mmHg 72%
    21:00 +23°C° 0 mm 5 mps 755 mmHg 69%
    22:00 +23°C° 0 mm 6 mps 755 mmHg 65%
    23:00 +23°C° 0 mm 5 mps 755 mmHg 67%

    28 September, Thursday

    Time Temperature Precipitation Wind Pressure Humidity
    00:00 +22°C° 0 mm 5 mps 755 mmHg 69%
    01:00 +21°C° 0 mm 4 mps 756 mmHg 71%
    02:00 +20°C° 0.4 mm 4 mps 756 mmHg 73%
    03:00 +19°C° 0.4 mm 5 mps 756 mmHg 75%
    04:00 +17°C° 0.4 mm 5 mps 756 mmHg 77%
    05:00 +17°C° 0.3 mm 6 mps 757 mmHg 78%
    06:00 +17°C° 0.3 mm 6 mps 757 mmHg 78%
    07:00 +16°C° 0.3 mm 6 mps 758 mmHg 79%
    08:00 +17°C° 0.5 mm 6 mps 758 mmHg 78%
    09:00 +17°C° 0.5 mm 7 mps 758 mmHg 76%
    10:00 +17°C° 0.5 mm 7 mps 759 mmHg 75%
    11:00 +17°C° 0.3 mm 7 mps 758 mmHg 76%
    12:00 +17°C° 0.3 mm 7 mps 758 mmHg 76%
    13:00 +17°C° 0.3 mm 7 mps 758 mmHg 76%
    14:00 +18°C° 0 mm 7 mps 758 mmHg 68%
    15:00 +21°C° 0 mm 7 mps 758 mmHg 59%
    16:00 +22°C° 0 mm 6 mps 758 mmHg 50%
    17:00 +21°C° 0 mm 6 mps 758 mmHg 54%
    18:00 +19°C° 0 mm 5 mps 759 mmHg 58%
    19:00 +17°C° 0 mm 5 mps 760 mmHg 62%
    20:00 +17°C° 0 mm 5 mps 760 mmHg 63%
    21:00 +17°C° 0 mm 4 mps 760 mmHg 64%
    22:00 +17°C° 0 mm 4 mps 760 mmHg 65%
    23:00 +15°C° 0 mm 4 mps 760 mmHg 68%

    29 September, Friday

    Time Temperature Precipitation Wind Pressure Humidity
    00:00 +16°C° 0 mm 3 mps 760 mmHg 70%
    01:00 +14°C° 0 mm 3 mps 760 mmHg 72%
    02:00 +14°C° 0 mm 3 mps 760 mmHg 76%
    03:00 +13°C° 0 mm 3 mps 760 mmHg 80%
    04:00 +13°C° 0 mm 2 mps 760 mmHg 84%
    05:00 +14°C° 0 mm 2 mps 760 mmHg 80%
    06:00 +15°C° 0 mm 2 mps 761 mmHg 77%
    07:00 +16°C° 0 mm 2 mps 761 mmHg 73%
    08:00 +19°C° 0 mm 2 mps 761 mmHg 62%
    09:00 +23°C° 0 mm 2 mps 760 mmHg 52%
    10:00 +26°C° 0 mm 2 mps 760 mmHg 41%
    11:00 +27°C° 0 mm 2 mps 759 mmHg 36%
    12:00 +28°C° 0 mm 2 mps 758 mmHg 31%
    13:00 +29°C° 0 mm 3 mps 757 mmHg 27%
    14:00 +29°C° 0 mm 3 mps 757 mmHg 27%
    15:00 +29°C° 0 mm 4 mps 756 mmHg 28%
    16:00 +29°C° 0 mm 4 mps 756 mmHg 28%
    17:00 +26°C° 0 mm 4 mps 756 mmHg 37%
    18:00 +23°C° 0 mm 4 mps 756 mmHg 46%
    19:00 +20°C° 0 mm 4 mps 757 mmHg 55%
    20:00 +19°C° 0 mm 4 mps 757 mmHg 53%
    21:00 +19°C° 0 mm 4 mps 757 mmHg 52%
    22:00 +18°C° 0 mm 4 mps 757 mmHg 50%
    23:00 +17°C° 0 mm 4 mps 757 mmHg 54%
    Show more